Location: Unspecified
(0.0000°N, 0.0000°E)
Time: 12:09:31
(UTC+00:00)

deb Explorer IX - Pass Details

Date: 21 December 2018
Orbit: 536 x 1116 km, 38.8° (Epoch: 25 March)

Event Time Altitude Azimuth Distance (km) Brightness Sun altitude
Rises 13:51:07 0° 263° (W) 3,678 ? 53.9°
Reaches altitude 10° 13:55:10 10° 285° (WNW) 2,603 ? 53.2°
Maximum altitude 13:58:31 15° 318° (NW) 2,154 ? 52.5°
Drops below altitude 10° 14:01:38 10° 351° (N) 2,370 ? 51.9°
Sets 14:05:04 0° 15° (NNE) 3,163 ? 51.3°
